THY267 UZSB-LTFM

Flight info

Callsign THY267
Flight time N/A
Altitude 34000
Route REGMO T388 POGON A477 AKRAM A477 NONIK A477 BABUM A909 RODAR N644 ADEKI N644 TETRO M10 SARPI UM10 HAKAN UW702 GUMRU UT315 NUGBA
Aircraft B739/M-SADE1E2E3FGHIJ1M3RWY/LB1

Departure

Time 2026-04-16 04:15
Airport Bukhara International Airport (UZSB)

Arrival

Time N/A
Airport İstanbul Airport (LTFM)
Time Latitude Longitude Altitude Speed Heading
2026-04-16 02:28 39.76190 64.47697 756 ft 0 kts 17°
2026-04-16 04:08 39.76191 64.47697 753 ft 0 kts 17°
2026-04-16 04:08 39.76200 64.47700 753 ft 3 kts 17°
2026-04-16 04:08 39.76227 64.47714 751 ft 5 kts 35°
2026-04-16 04:08 39.76233 64.47767 752 ft 7 kts 95°
2026-04-16 04:09 39.76228 64.47843 753 ft 10 kts 94°
2026-04-16 04:09 39.76249 64.47927 754 ft 11 kts 28°
2026-04-16 04:09 39.76332 64.47951 752 ft 13 kts 11°
2026-04-16 04:09 39.76431 64.47976 752 ft 15 kts 11°
2026-04-16 04:10 39.76542 64.48003 751 ft 17 kts 10°
2026-04-16 04:10 39.76671 64.48032 751 ft 20 kts
2026-04-16 04:10 39.76809 64.48061 752 ft 20 kts
2026-04-16 04:10 39.76953 64.48090 749 ft 23 kts 11°
2026-04-16 04:11 39.77123 64.48133 752 ft 26 kts 11°
2026-04-16 04:11 39.77299 64.48175 751 ft 25 kts 10°
2026-04-16 04:11 39.77464 64.48212 753 ft 23 kts
2026-04-16 04:11 39.77621 64.48249 751 ft 23 kts 10°
2026-04-16 04:12 39.77774 64.48285 750 ft 22 kts 10°
2026-04-16 04:12 39.77928 64.48321 749 ft 23 kts 10°
2026-04-16 04:12 39.78090 64.48358 748 ft 23 kts 10°
2026-04-16 04:12 39.78247 64.48395 749 ft 23 kts
2026-04-16 04:13 39.78404 64.48431 750 ft 23 kts 10°
2026-04-16 04:13 39.78557 64.48466 754 ft 22 kts
2026-04-16 04:13 39.78707 64.48501 755 ft 22 kts 10°
2026-04-16 04:13 39.78806 64.48483 754 ft 11 kts 333°
2026-04-16 04:14 39.78850 64.48492 755 ft 4 kts 65°
2026-04-16 04:14 39.78835 64.48524 756 ft 5 kts 153°
2026-04-16 04:14 39.78803 64.48522 752 ft 5 kts 190°
2026-04-16 04:14 39.78720 64.48503 754 ft 33 kts 190°
2026-04-16 04:15 39.78254 64.48394 748 ft 101 kts 190°
2026-04-16 04:15 39.77375 64.48188 749 ft 153 kts 191°
2026-04-16 04:15 39.76242 64.47900 1079 ft 169 kts 195°
2026-04-16 04:15 39.75083 64.47622 1715 ft 173 kts 196°
2026-04-16 04:16 39.73836 64.47325 2134 ft 188 kts 196°
2026-04-16 04:16 39.72491 64.47015 2256 ft 204 kts 197°
2026-04-16 04:16 39.71163 64.46318 2396 ft 213 kts 220°
2026-04-16 04:16 39.70267 64.44831 2522 ft 224 kts 252°
2026-04-16 04:17 39.70068 64.42739 2811 ft 239 kts 272°
2026-04-16 04:17 39.70260 64.40609 3554 ft 237 kts 278°
2026-04-16 04:17 39.70539 64.38474 4175 ft 240 kts 278°
2026-04-16 04:17 39.70807 64.36362 4942 ft 237 kts 276°
2026-04-16 04:18 39.71049 64.34211 5465 ft 242 kts 276°
2026-04-16 04:18 39.71287 64.32042 6011 ft 246 kts 276°
2026-04-16 04:18 39.71532 64.29814 6529 ft 251 kts 275°
2026-04-16 04:18 39.71778 64.27560 7162 ft 250 kts 276°
2026-04-16 04:19 39.72025 64.25296 7695 ft 255 kts 275°
2026-04-16 04:19 39.72271 64.23018 8245 ft 258 kts 275°
2026-04-16 04:19 39.72520 64.20726 8832 ft 261 kts 275°
2026-04-16 04:19 39.72778 64.18370 9454 ft 264 kts 275°
2026-04-16 04:20 39.73038 64.15986 10060 ft 266 kts 275°
2026-04-16 04:20 39.73304 64.13542 10355 ft 281 kts 275°
2026-04-16 04:20 39.73586 64.10948 10507 ft 300 kts 275°
2026-04-16 04:20 39.73883 64.08188 10656 ft 317 kts 275°
2026-04-16 04:21 39.74198 64.05262 10792 ft 334 kts 275°
2026-04-16 04:21 39.74528 64.02243 11040 ft 346 kts 275°
2026-04-16 04:21 39.74872 63.99094 11539 ft 350 kts 275°
2026-04-16 04:21 39.75210 63.96005 12176 ft 350 kts 275°
2026-04-16 04:22 39.75555 63.92837 12833 ft 350 kts 275°
2026-04-16 04:22 39.75894 63.89692 13430 ft 352 kts 275°
2026-04-16 04:22 39.76230 63.86563 14006 ft 354 kts 274°
2026-04-16 04:22 39.76568 63.83371 14506 ft 358 kts 274°
2026-04-16 04:23 39.76907 63.80151 14975 ft 362 kts 274°
2026-04-16 04:23 39.77253 63.76886 15468 ft 366 kts 274°
2026-04-16 04:23 39.77605 63.73588 15974 ft 370 kts 274°
2026-04-16 04:23 39.77957 63.70289 16495 ft 372 kts 274°
2026-04-16 04:24 39.78311 63.66948 17009 ft 375 kts 274°
2026-04-16 04:24 39.78670 63.63536 17510 ft 378 kts 273°
2026-04-16 04:24 39.79027 63.60137 18000 ft 381 kts 273°
2026-04-16 04:24 39.79385 63.56708 18475 ft 384 kts 273°
2026-04-16 04:25 39.79746 63.53245 18890 ft 387 kts 273°
2026-04-16 04:25 39.80103 63.49811 19323 ft 390 kts 273°
2026-04-16 04:25 39.80466 63.46310 19742 ft 392 kts 273°
2026-04-16 04:25 39.80832 63.42767 20159 ft 395 kts 273°
2026-04-16 04:26 39.81199 63.39208 20577 ft 398 kts 273°
2026-04-16 04:26 39.81568 63.35615 20975 ft 401 kts 273°
2026-04-16 04:26 39.81932 63.32069 21374 ft 404 kts 272°
2026-04-16 04:26 39.82303 63.28436 21781 ft 406 kts 272°
2026-04-16 04:27 39.82637 63.24712 22189 ft 407 kts 270°
2026-04-16 04:27 39.82815 63.21101 22558 ft 409 kts 268°
2026-04-16 04:27 39.82932 63.17358 22939 ft 412 kts 267°
2026-04-16 04:27 39.83032 63.13626 23319 ft 414 kts 267°
2026-04-16 04:28 39.83140 63.09870 23708 ft 417 kts 267°
2026-04-16 04:28 39.83260 63.06055 24030 ft 419 kts 268°
2026-04-16 04:28 39.83387 63.02306 24380 ft 420 kts 268°
2026-04-16 04:28 39.83521 62.98498 24724 ft 422 kts 268°
2026-04-16 04:29 39.83656 62.94672 25048 ft 423 kts 268°
2026-04-16 04:29 39.83791 62.90834 25353 ft 425 kts 268°
2026-04-16 04:29 39.83926 62.86979 25669 ft 427 kts 269°
2026-04-16 04:29 39.84058 62.83151 25986 ft 429 kts 269°
2026-04-16 04:30 39.84191 62.79255 26276 ft 430 kts 269°
2026-04-16 04:30 39.84322 62.75349 26560 ft 432 kts 269°
2026-04-16 04:30 39.84443 62.71427 26860 ft 433 kts 269°
2026-04-16 04:30 39.84548 62.67531 27151 ft 435 kts 269°
2026-04-16 04:31 39.84648 62.63583 27527 ft 434 kts 269°
2026-04-16 04:31 39.84746 62.59656 27985 ft 432 kts 269°
2026-04-16 04:31 39.84841 62.55811 28468 ft 429 kts 269°
2026-04-16 04:31 39.84937 62.51929 28894 ft 428 kts 269°
2026-04-16 04:32 39.85031 62.48055 29297 ft 427 kts 269°
2026-04-16 04:32 39.85126 62.44184 29708 ft 426 kts 269°
2026-04-16 04:32 39.85217 62.40402 30141 ft 424 kts 269°
2026-04-16 04:32 39.85309 62.36525 30491 ft 423 kts 269°
2026-04-16 04:33 39.85399 62.32723 30797 ft 422 kts 269°
2026-04-16 04:33 39.85486 62.28957 31094 ft 421 kts 269°
2026-04-16 04:33 39.85575 62.25075 31435 ft 420 kts 269°
2026-04-16 04:33 39.85660 62.21279 31752 ft 419 kts 269°
2026-04-16 04:34 39.85745 62.17483 32033 ft 419 kts 269°
2026-04-16 04:34 39.85826 62.13732 32052 ft 422 kts 269°
2026-04-16 04:34 39.85989 62.06115 32070 ft 418 kts 269°
2026-04-16 04:35 39.86146 61.98540 32153 ft 420 kts 269°
2026-04-16 04:35 39.86223 61.94744 32444 ft 419 kts 269°
2026-04-16 04:35 39.86298 61.90991 32827 ft 416 kts 269°
2026-04-16 04:36 39.86373 61.87202 33146 ft 415 kts 269°
2026-04-16 04:36 39.86445 61.83450 33371 ft 415 kts 269°
2026-04-16 04:36 39.86516 61.79682 33582 ft 416 kts 269°
2026-04-16 04:36 39.86586 61.75928 33812 ft 416 kts 269°
2026-04-16 04:37 39.86655 61.72202 34062 ft 414 kts 269°
2026-04-16 04:37 39.86722 61.68456 34043 ft 416 kts 269°
2026-04-16 04:37 39.86853 61.60973 34066 ft 415 kts 269°
2026-04-16 04:38 39.86980 61.53434 34065 ft 414 kts 268°
2026-04-16 04:38 39.87101 61.46013 34070 ft 413 kts 268°
2026-04-16 04:39 39.87219 61.38507 34063 ft 412 kts 268°
2026-04-16 04:39 39.87375 61.31093 34072 ft 412 kts 269°
2026-04-16 04:40 39.87570 61.23610 34062 ft 412 kts 269°
2026-04-16 04:40 39.87727 61.17417 34066 ft 412 kts 269°
2026-04-16 04:41 39.87905 61.09947 34061 ft 412 kts 269°
2026-04-16 04:41 39.88076 61.02504 34067 ft 413 kts 269°
2026-04-16 04:42 39.88243 60.94979 34061 ft 414 kts 269°
2026-04-16 04:42 39.88404 60.87492 34070 ft 414 kts 269°
2026-04-16 04:43 39.88559 60.80074 34056 ft 415 kts 269°
2026-04-16 04:43 39.88712 60.72520 34066 ft 415 kts 268°
2026-04-16 04:44 39.88860 60.64995 34059 ft 416 kts 268°
2026-04-16 04:44 39.89003 60.57469 34061 ft 416 kts 268°
2026-04-16 04:45 39.89141 60.49941 34055 ft 416 kts 268°
2026-04-16 04:45 39.89274 60.42432 34058 ft 416 kts 268°
2026-04-16 04:46 39.89403 60.34888 34056 ft 415 kts 268°
2026-04-16 04:46 39.89524 60.27424 34060 ft 415 kts 268°
2026-04-16 04:47 39.89608 60.20027 34155 ft 411 kts 268°
2026-04-16 04:47 39.89643 60.16389 34300 ft 411 kts 268°
2026-04-16 04:47 39.89677 60.12656 34410 ft 413 kts 268°
2026-04-16 04:48 39.89710 60.08906 34553 ft 414 kts 268°
2026-04-16 04:48 39.89744 60.05158 34740 ft 414 kts 268°
2026-04-16 04:48 39.89777 60.01417 34935 ft 413 kts 268°
2026-04-16 04:48 39.89809 59.97671 35095 ft 414 kts 268°
2026-04-16 04:49 39.89841 59.93937 35257 ft 414 kts 268°
2026-04-16 04:49 39.89871 59.90174 35425 ft 414 kts 267°
2026-04-16 04:49 39.89900 59.86429 35590 ft 414 kts 267°
2026-04-16 04:49 39.89928 59.82671 35740 ft 414 kts 267°
2026-04-16 04:50 39.89954 59.78959 35888 ft 414 kts 267°
2026-04-16 04:50 39.89980 59.75215 36020 ft 413 kts 267°
2026-04-16 04:50 39.90027 59.67699 36055 ft 416 kts 267°
2026-04-16 04:51 39.90069 59.60172 36049 ft 415 kts 267°
2026-04-16 04:51 39.90107 59.52635 36055 ft 415 kts 267°
2026-04-16 04:52 39.90140 59.45163 36046 ft 415 kts 267°
2026-04-16 04:52 39.90169 59.37645 36050 ft 414 kts 267°
2026-04-16 04:53 39.90181 59.30156 36041 ft 411 kts 267°
2026-04-16 04:53 39.90181 59.22774 36047 ft 405 kts 266°
2026-04-16 04:54 39.90178 59.15443 36042 ft 402 kts 266°
2026-04-16 04:54 39.90172 59.08178 36049 ft 401 kts 266°
2026-04-16 04:55 39.90149 59.00975 36044 ft 400 kts 266°
2026-04-16 04:55 39.90118 58.93727 36056 ft 401 kts 266°
2026-04-16 04:56 39.90083 58.86482 36061 ft 403 kts 266°
2026-04-16 04:56 39.90044 58.79144 36057 ft 405 kts 266°
2026-04-16 04:57 39.90001 58.71788 36057 ft 407 kts 266°
2026-04-16 04:57 39.89954 58.64403 36056 ft 408 kts 266°
2026-04-16 04:58 39.89902 58.57019 36059 ft 409 kts 266°
2026-04-16 04:58 39.89845 58.49592 36070 ft 409 kts 266°
2026-04-16 04:59 39.89783 58.42184 36060 ft 409 kts 266°
2026-04-16 04:59 39.89717 58.34797 36067 ft 407 kts 266°
2026-04-16 05:00 39.89647 58.27499 36069 ft 406 kts 265°
2026-04-16 05:00 39.89572 58.20075 36071 ft 405 kts 265°
2026-04-16 05:01 39.89498 58.12799 36071 ft 404 kts 265°
2026-04-16 05:01 39.89440 58.05515 36077 ft 403 kts 265°
2026-04-16 05:02 39.89380 57.98197 36077 ft 402 kts 265°
2026-04-16 05:02 39.89314 57.90906 36083 ft 402 kts 265°
2026-04-16 05:03 39.89242 57.83612 36085 ft 402 kts 265°
2026-04-16 05:04 39.89127 57.72759 36086 ft 402 kts 265°
2026-04-16 05:04 39.89033 57.65395 36106 ft 403 kts 265°
2026-04-16 05:05 39.88943 57.58154 36101 ft 405 kts 265°
2026-04-16 05:05 39.88856 57.50765 36103 ft 407 kts 265°
2026-04-16 05:06 39.88762 57.43395 36098 ft 407 kts 265°
2026-04-16 05:06 39.88660 57.36009 36100 ft 408 kts 265°
2026-04-16 05:07 39.88553 57.28631 36110 ft 407 kts 265°
2026-04-16 05:07 39.88442 57.21318 36113 ft 406 kts 265°
2026-04-16 05:08 39.88325 57.13964 36111 ft 405 kts 265°
2026-04-16 05:08 39.88204 57.06621 36106 ft 404 kts 265°
2026-04-16 05:09 39.88079 56.99312 36122 ft 403 kts 265°
2026-04-16 05:09 39.87950 56.92030 36112 ft 402 kts 265°
2026-04-16 05:10 39.87816 56.84755 36117 ft 402 kts 265°
2026-04-16 05:10 39.87679 56.77528 36123 ft 401 kts 265°
2026-04-16 05:11 39.87536 56.70257 36122 ft 401 kts 265°
2026-04-16 05:11 39.87389 56.62983 36124 ft 402 kts 265°
2026-04-16 05:12 39.87237 56.55694 36124 ft 402 kts 265°
2026-04-16 05:12 39.87081 56.48448 36125 ft 403 kts 265°
2026-04-16 05:13 39.86920 56.41141 36127 ft 404 kts 265°
2026-04-16 05:13 39.86753 56.33820 36129 ft 405 kts 265°
2026-04-16 05:14 39.86583 56.26468 36134 ft 406 kts 265°
2026-04-16 05:14 39.86408 56.19145 36128 ft 407 kts 265°
2026-04-16 05:15 39.86233 56.11803 36135 ft 408 kts 265°
2026-04-16 05:15 39.86052 56.04365 36139 ft 409 kts 266°
2026-04-16 05:16 39.85867 55.96948 36136 ft 410 kts 266°
2026-04-16 05:16 39.85676 55.89522 36136 ft 411 kts 266°
2026-04-16 05:17 39.85481 55.82081 36141 ft 412 kts 266°
2026-04-16 05:17 39.85280 55.74629 36144 ft 412 kts 266°
2026-04-16 05:18 39.85074 55.67158 36145 ft 412 kts 266°
2026-04-16 05:18 39.84865 55.59742 36143 ft 413 kts 266°
2026-04-16 05:19 39.84650 55.52269 36145 ft 413 kts 266°
2026-04-16 05:19 39.84430 55.44810 36146 ft 413 kts 266°
2026-04-16 05:20 39.84204 55.37316 36148 ft 413 kts 266°
2026-04-16 05:20 39.83974 55.29853 36149 ft 413 kts 266°
2026-04-16 05:21 39.83739 55.22373 36150 ft 413 kts 266°
2026-04-16 05:21 39.83501 55.14930 36153 ft 413 kts 266°
2026-04-16 05:22 39.83257 55.07443 36156 ft 413 kts 266°
2026-04-16 05:22 39.83025 55.00008 36157 ft 413 kts 266°
2026-04-16 05:23 39.82815 54.92520 36157 ft 414 kts 266°
2026-04-16 05:23 39.82599 54.85033 36161 ft 414 kts 266°
2026-04-16 05:24 39.82464 54.77570 36155 ft 414 kts 272°
2026-04-16 05:24 39.83535 54.70205 36177 ft 417 kts 283°
2026-04-16 05:25 39.85148 54.62923 36170 ft 417 kts 283°
2026-04-16 05:25 39.86712 54.55701 36175 ft 417 kts 283°
2026-04-16 05:26 39.88260 54.48406 36177 ft 418 kts 283°
2026-04-16 05:26 39.89791 54.41138 36179 ft 418 kts 283°
2026-04-16 05:27 39.91328 54.33779 36185 ft 419 kts 283°
2026-04-16 05:27 39.92856 54.26432 36185 ft 419 kts 283°
2026-04-16 05:28 39.94367 54.19144 36183 ft 420 kts 283°
2026-04-16 05:28 39.95886 54.11797 36186 ft 420 kts 283°
2026-04-16 05:29 39.97395 54.04477 36184 ft 420 kts 283°
2026-04-16 05:29 39.98652 53.98352 36179 ft 420 kts 283°
2026-04-16 05:30 40.00166 53.90961 36179 ft 419 kts 283°
2026-04-16 05:30 40.01667 53.83600 36178 ft 419 kts 283°
2026-04-16 05:31 40.03161 53.76249 36175 ft 418 kts 283°
2026-04-16 05:31 40.04634 53.68976 36175 ft 418 kts 283°
2026-04-16 05:32 40.06130 53.61567 36172 ft 418 kts 283°
2026-04-16 05:32 40.07602 53.54244 36178 ft 417 kts 283°
2026-04-16 05:33 40.09062 53.46957 36173 ft 417 kts 283°
2026-04-16 05:33 40.10527 53.39624 36176 ft 417 kts 283°
2026-04-16 05:34 40.11988 53.32277 36174 ft 417 kts 283°
2026-04-16 05:34 40.13442 53.24945 36182 ft 417 kts 283°
2026-04-16 05:35 40.14894 53.17595 36183 ft 418 kts 283°
2026-04-16 05:35 40.16347 53.10211 36184 ft 419 kts 283°
2026-04-16 05:36 40.17786 53.02872 36182 ft 419 kts 283°
2026-04-16 05:36 40.19230 52.95484 36184 ft 420 kts 283°
2026-04-16 05:37 40.20661 52.88128 36181 ft 420 kts 283°
2026-04-16 05:37 40.22112 52.80650 36184 ft 420 kts 283°
2026-04-16 05:38 40.23543 52.73243 36181 ft 420 kts 283°
2026-04-16 05:38 40.24961 52.65878 36177 ft 419 kts 283°
2026-04-16 05:39 40.26382 52.58472 36174 ft 419 kts 283°
2026-04-16 05:39 40.27794 52.51100 36179 ft 418 kts 283°
2026-04-16 05:40 40.29210 52.43688 36178 ft 418 kts 283°
2026-04-16 05:40 40.30615 52.36301 36180 ft 418 kts 283°
2026-04-16 05:41 40.32011 52.28929 36167 ft 415 kts 283°
2026-04-16 05:41 40.33385 52.21652 36173 ft 414 kts 283°
2026-04-16 05:42 40.34770 52.14296 36182 ft 412 kts 283°
2026-04-16 05:42 40.36142 52.06983 36185 ft 412 kts 283°
2026-04-16 05:43 40.37503 51.99694 36186 ft 411 kts 283°
2026-04-16 05:43 40.38852 51.92439 36186 ft 410 kts 283°
2026-04-16 05:44 40.40197 51.85183 36188 ft 410 kts 283°
2026-04-16 05:44 40.41532 51.77949 36187 ft 410 kts 283°
2026-04-16 05:45 40.42880 51.70618 36189 ft 411 kts 283°
2026-04-16 05:45 40.44218 51.63316 36191 ft 412 kts 283°
2026-04-16 05:46 40.45558 51.55981 36187 ft 413 kts 283°
2026-04-16 05:46 40.46902 51.48627 36191 ft 414 kts 283°
2026-04-16 05:47 40.48376 51.41303 36195 ft 415 kts 284°
2026-04-16 05:47 40.49895 51.33975 36194 ft 416 kts 284°
2026-04-16 05:48 40.51397 51.26642 36195 ft 416 kts 284°
2026-04-16 05:48 40.52890 51.19276 36197 ft 417 kts 284°
2026-04-16 05:49 40.54364 51.11962 36190 ft 417 kts 284°
2026-04-16 05:49 40.55846 51.04577 36190 ft 417 kts 284°
2026-04-16 05:50 40.57321 50.97200 36194 ft 417 kts 284°
2026-04-16 05:50 40.58791 50.89823 36195 ft 417 kts 284°
2026-04-16 05:51 40.60256 50.82445 36198 ft 417 kts 284°
2026-04-16 05:51 40.61719 50.75050 36193 ft 417 kts 284°
2026-04-16 05:52 40.63162 50.67729 36194 ft 417 kts 284°
2026-04-16 05:52 40.64618 50.60313 36201 ft 417 kts 284°
2026-04-16 05:53 40.66066 50.52914 36195 ft 417 kts 284°
2026-04-16 05:53 40.67511 50.45504 36193 ft 417 kts 284°
2026-04-16 05:54 40.68950 50.38091 36197 ft 417 kts 284°
2026-04-16 05:54 40.70382 50.30668 36200 ft 418 kts 284°
2026-04-16 05:55 40.71800 50.23293 36201 ft 418 kts 284°
2026-04-16 05:55 40.73227 50.15848 36205 ft 419 kts 284°
2026-04-16 05:56 40.74412 50.09642 36200 ft 419 kts 284°
2026-04-16 05:56 40.76056 50.01002 36203 ft 420 kts 284°
2026-04-16 05:57 40.77481 49.93479 36201 ft 421 kts 284°
2026-04-16 05:57 40.78896 49.85982 36202 ft 421 kts 284°
2026-04-16 05:58 40.80307 49.78473 36201 ft 422 kts 284°
2026-04-16 05:58 40.81718 49.70942 36193 ft 423 kts 284°
2026-04-16 05:59 40.83114 49.63458 36194 ft 423 kts 284°
2026-04-16 05:59 40.84515 49.55918 36203 ft 423 kts 284°
2026-04-16 06:00 40.85928 49.48280 36204 ft 423 kts 284°
2026-04-16 06:00 40.87309 49.40798 36197 ft 424 kts 284°
2026-04-16 06:01 40.88701 49.33203 36196 ft 424 kts 283°
2026-04-16 06:01 40.90011 49.25604 36194 ft 424 kts 283°
2026-04-16 06:02 40.91925 49.14193 36190 ft 424 kts 283°
2026-04-16 06:02 40.93205 49.06574 36196 ft 424 kts 283°
2026-04-16 06:03 40.94484 48.98954 36190 ft 424 kts 283°
2026-04-16 06:03 40.95757 48.91342 36188 ft 424 kts 283°
2026-04-16 06:04 40.97029 48.83707 36192 ft 424 kts 283°
2026-04-16 06:04 40.98283 48.76143 36194 ft 424 kts 283°
2026-04-16 06:05 40.99540 48.68522 36199 ft 424 kts 283°
2026-04-16 06:05 41.00795 48.60892 36196 ft 424 kts 283°
2026-04-16 06:06 41.02036 48.53304 36203 ft 423 kts 283°
2026-04-16 06:06 41.03277 48.45686 36204 ft 423 kts 283°
2026-04-16 06:07 41.04516 48.38049 36206 ft 423 kts 283°
2026-04-16 06:07 41.05743 48.30450 36212 ft 422 kts 283°
2026-04-16 06:08 41.06965 48.22849 36224 ft 421 kts 283°
2026-04-16 06:08 41.08177 48.15274 36225 ft 422 kts 283°
2026-04-16 06:09 41.09386 48.07683 36225 ft 422 kts 283°
2026-04-16 06:09 41.10599 48.00042 36220 ft 421 kts 283°
2026-04-16 06:10 41.11802 47.92426 36219 ft 422 kts 283°
2026-04-16 06:10 41.13000 47.84810 36225 ft 421 kts 283°
2026-04-16 06:11 41.14190 47.77210 36235 ft 421 kts 283°
2026-04-16 06:11 41.15369 47.69640 36224 ft 421 kts 283°
2026-04-16 06:12 41.16548 47.62043 36219 ft 421 kts 283°
2026-04-16 06:12 41.17723 47.54433 36232 ft 420 kts 282°
2026-04-16 06:13 41.18889 47.46847 36253 ft 419 kts 283°
2026-04-16 06:13 41.20052 47.39247 36249 ft 419 kts 282°
2026-04-16 06:14 41.21010 47.32957 36248 ft 419 kts 282°
2026-04-16 06:14 41.22345 47.24156 36251 ft 419 kts 282°
2026-04-16 06:15 41.23492 47.16553 36264 ft 418 kts 282°
2026-04-16 06:15 41.24631 47.08972 36267 ft 418 kts 282°
2026-04-16 06:16 41.25581 47.02617 36263 ft 418 kts 282°
2026-04-16 06:16 41.26700 46.95099 36267 ft 418 kts 282°
2026-04-16 06:17 41.27823 46.87520 36269 ft 418 kts 282°
2026-04-16 06:17 41.28943 46.79935 36274 ft 417 kts 282°
2026-04-16 06:18 41.30050 46.72353 36275 ft 417 kts 282°
2026-04-16 06:18 41.31113 46.64802 36273 ft 417 kts 282°
2026-04-16 06:19 41.32170 46.57213 36280 ft 416 kts 282°
2026-04-16 06:19 41.33222 46.49640 36272 ft 416 kts 282°
2026-04-16 06:20 41.34271 46.42065 36264 ft 416 kts 282°
2026-04-16 06:20 41.35315 46.34494 36264 ft 416 kts 282°
2026-04-16 06:21 41.36360 46.26880 36246 ft 416 kts 282°
2026-04-16 06:21 41.37395 46.19299 36251 ft 416 kts 282°
2026-04-16 06:22 41.38424 46.11725 36246 ft 416 kts 282°
2026-04-16 06:22 41.39441 46.04199 36240 ft 416 kts 282°
2026-04-16 06:23 41.40461 45.96614 36244 ft 416 kts 281°
2026-04-16 06:23 41.41481 45.88986 36234 ft 416 kts 281°
2026-04-16 06:24 41.42492 45.81382 36227 ft 416 kts 281°
2026-04-16 06:24 41.43499 45.73776 36232 ft 416 kts 281°
2026-04-16 06:25 41.44497 45.66192 36222 ft 416 kts 281°
2026-04-16 06:25 41.45492 45.58592 36216 ft 416 kts 281°
2026-04-16 06:26 41.46487 45.50956 36221 ft 416 kts 281°
2026-04-16 06:26 41.47462 45.43432 36211 ft 416 kts 281°
2026-04-16 06:27 41.48432 45.35784 36212 ft 416 kts 279°
2026-04-16 06:27 41.49118 45.28111 36232 ft 417 kts 277°
2026-04-16 06:28 41.49219 45.26811 36229 ft 417 kts 277°
2026-04-16 06:28 41.49664 45.20952 36212 ft 417 kts 277°
2026-04-16 06:29 41.50261 45.13250 36222 ft 417 kts 277°
2026-04-16 06:29 41.50874 45.05557 36221 ft 417 kts 278°
2026-04-16 06:30 41.51489 44.97857 36227 ft 417 kts 277°
2026-04-16 06:30 41.52101 44.90154 36230 ft 417 kts 277°
2026-04-16 06:31 41.52702 44.82505 36239 ft 417 kts 277°
2026-04-16 06:31 41.53303 44.74798 36225 ft 417 kts 277°
2026-04-16 06:32 41.53899 44.67090 36226 ft 417 kts 277°
2026-04-16 06:32 41.54490 44.59374 36212 ft 418 kts 277°
2026-04-16 06:33 41.55075 44.51655 36204 ft 418 kts 277°
2026-04-16 06:33 41.55656 44.43931 36204 ft 418 kts 277°
2026-04-16 06:34 41.56229 44.36253 36205 ft 418 kts 277°
2026-04-16 06:34 41.56798 44.28559 36194 ft 418 kts 277°
2026-04-16 06:35 41.57370 44.20804 36206 ft 417 kts 277°
2026-04-16 06:35 41.57974 44.13089 36216 ft 417 kts 277°
2026-04-16 06:36 41.58584 44.05365 36205 ft 418 kts 277°
2026-04-16 06:36 41.59183 43.97643 36216 ft 418 kts 277°
2026-04-16 06:37 41.59777 43.89897 36210 ft 419 kts 277°
2026-04-16 06:37 41.60360 43.82211 36211 ft 418 kts 277°
2026-04-16 06:38 41.60939 43.74503 36211 ft 418 kts 277°
2026-04-16 06:38 41.61516 43.66771 36218 ft 418 kts 277°
2026-04-16 06:39 41.62087 43.59039 36208 ft 418 kts 277°
2026-04-16 06:39 41.62657 43.51250 36209 ft 418 kts 277°
2026-04-16 06:40 41.63219 43.43525 36216 ft 417 kts 277°
2026-04-16 06:40 41.63776 43.35801 36213 ft 417 kts 277°
2026-04-16 06:41 41.64329 43.28083 36209 ft 417 kts 277°
2026-04-16 06:41 41.64872 43.20422 36205 ft 417 kts 277°
2026-04-16 06:42 41.65415 43.12683 36211 ft 417 kts 277°
2026-04-16 06:42 41.65952 43.04965 36203 ft 417 kts 277°
2026-04-16 06:43 41.66484 42.97240 36204 ft 416 kts 277°
2026-04-16 06:43 41.67007 42.89571 36204 ft 416 kts 277°
2026-04-16 06:44 41.66995 42.81808 36210 ft 417 kts 266°
2026-04-16 06:44 41.66329 42.74132 36204 ft 418 kts 265°
2026-04-16 06:45 41.65655 42.66446 36200 ft 418 kts 266°
2026-04-16 06:45 41.64994 42.58700 36201 ft 418 kts 266°
2026-04-16 06:46 41.64343 42.50994 36205 ft 417 kts 266°
2026-04-16 06:46 41.63690 42.43288 36199 ft 417 kts 266°
2026-04-16 06:47 41.63031 42.35568 36191 ft 418 kts 266°
2026-04-16 06:47 41.62366 42.27851 36193 ft 418 kts 266°
2026-04-16 06:48 41.61700 42.20195 36198 ft 417 kts 266°
2026-04-16 06:48 41.61028 42.12498 36198 ft 417 kts 265°
2026-04-16 06:49 41.60348 42.04810 36212 ft 416 kts 266°
2026-04-16 06:49 41.59665 41.97133 36220 ft 416 kts 266°
2026-04-16 06:50 41.58978 41.89471 36221 ft 416 kts 266°
2026-04-16 06:50 41.58293 41.81875 36228 ft 415 kts 265°
2026-04-16 06:51 41.57598 41.74242 36232 ft 417 kts 266°
2026-04-16 06:51 41.56896 41.66582 36229 ft 416 kts 265°
2026-04-16 06:52 41.56188 41.58911 36242 ft 415 kts 265°
2026-04-16 06:52 41.55478 41.51264 36232 ft 415 kts 265°
2026-04-16 06:53 41.54927 41.43622 36227 ft 412 kts 274°
2026-04-16 06:53 41.55343 41.36020 36234 ft 410 kts 276°
2026-04-16 06:54 41.55823 41.28452 36233 ft 410 kts 276°
2026-04-16 06:54 41.56278 41.20823 36233 ft 411 kts 276°
2026-04-16 06:55 41.56704 41.13323 36246 ft 414 kts 276°
2026-04-16 06:55 41.56919 41.09484 36399 ft 415 kts 276°
2026-04-16 06:55 41.57134 41.05595 36660 ft 413 kts 276°
2026-04-16 06:56 41.57344 41.01776 36890 ft 413 kts 276°
2026-04-16 06:56 41.57551 40.98001 37038 ft 414 kts 276°
2026-04-16 06:56 41.57760 40.94162 37197 ft 414 kts 276°
2026-04-16 06:56 41.57967 40.90331 37397 ft 414 kts 276°
2026-04-16 06:57 41.58174 40.86492 37593 ft 413 kts 276°
2026-04-16 06:57 41.58379 40.82659 37731 ft 414 kts 276°
2026-04-16 06:57 41.58583 40.78817 37901 ft 414 kts 276°
2026-04-16 06:57 41.58785 40.74991 38077 ft 413 kts 276°
2026-04-16 06:58 41.58987 40.71161 38210 ft 413 kts 276°
2026-04-16 06:58 41.59188 40.67327 38213 ft 415 kts 275°
2026-04-16 06:58 41.59583 40.59670 38238 ft 414 kts 275°
2026-04-16 06:59 41.59971 40.52018 38228 ft 413 kts 275°
2026-04-16 06:59 41.60356 40.44357 38233 ft 412 kts 275°
2026-04-16 07:00 41.60734 40.36733 38233 ft 411 kts 275°
2026-04-16 07:01 41.61293 40.25294 38234 ft 410 kts 275°
2026-04-16 07:01 41.61596 40.18972 38222 ft 410 kts 275°
2026-04-16 07:02 41.62016 40.10115 38228 ft 410 kts 275°
2026-04-16 07:02 41.62312 40.03778 38228 ft 411 kts 275°
2026-04-16 07:03 41.62663 39.96159 38240 ft 411 kts 275°
2026-04-16 07:03 41.63008 39.88560 38242 ft 412 kts 275°
2026-04-16 07:04 41.63353 39.80862 38229 ft 413 kts 275°
2026-04-16 07:04 41.63688 39.73272 38239 ft 413 kts 275°
2026-04-16 07:05 41.64024 39.65555 38241 ft 413 kts 275°
2026-04-16 07:05 41.64350 39.57926 38242 ft 414 kts 275°
2026-04-16 07:06 41.64673 39.50217 38226 ft 414 kts 275°
2026-04-16 07:06 41.64989 39.42536 38230 ft 414 kts 275°
2026-04-16 07:07 41.65300 39.34874 38233 ft 413 kts 275°
2026-04-16 07:07 41.65608 39.27179 38230 ft 413 kts 275°
2026-04-16 07:08 41.65909 39.19501 38230 ft 413 kts 275°
2026-04-16 07:08 41.66204 39.11879 38228 ft 413 kts 275°
2026-04-16 07:09 41.66494 39.04237 38232 ft 413 kts 275°
2026-04-16 07:09 41.66782 38.96525 38229 ft 412 kts 275°
2026-04-16 07:10 41.67061 38.88909 38230 ft 412 kts 275°
2026-04-16 07:10 41.67336 38.81248 38235 ft 412 kts 274°
2026-04-16 07:11 41.67607 38.73590 38232 ft 412 kts 274°
2026-04-16 07:11 41.67872 38.65928 38233 ft 412 kts 274°
2026-04-16 07:12 41.68132 38.58280 38234 ft 412 kts 274°
2026-04-16 07:12 41.68387 38.50603 38233 ft 413 kts 274°
2026-04-16 07:13 41.68638 38.42930 38235 ft 413 kts 274°
2026-04-16 07:13 41.68883 38.35248 38234 ft 413 kts 274°
2026-04-16 07:14 41.69123 38.27576 38232 ft 413 kts 274°
2026-04-16 07:14 41.69359 38.19895 38232 ft 413 kts 274°
2026-04-16 07:15 41.69589 38.12215 38228 ft 413 kts 274°
2026-04-16 07:15 41.69812 38.04587 38228 ft 413 kts 274°
2026-04-16 07:16 41.70032 37.96912 38225 ft 413 kts 274°
2026-04-16 07:16 41.70247 37.89233 38227 ft 412 kts 274°
2026-04-16 07:17 41.70455 37.81624 38224 ft 412 kts 274°
2026-04-16 07:17 41.70661 37.73892 38222 ft 412 kts 274°
2026-04-16 07:18 41.70861 37.66235 38226 ft 412 kts 274°
2026-04-16 07:18 41.71052 37.58636 38226 ft 411 kts 274°
2026-04-16 07:19 41.71238 37.50990 38225 ft 411 kts 274°
2026-04-16 07:19 41.71421 37.43311 38222 ft 411 kts 274°
2026-04-16 07:20 41.71599 37.35655 38224 ft 411 kts 274°
2026-04-16 07:20 41.71771 37.28018 38219 ft 411 kts 273°
2026-04-16 07:21 41.71938 37.20372 38221 ft 410 kts 273°
2026-04-16 07:21 41.72100 37.12753 38219 ft 410 kts 273°
2026-04-16 07:22 41.72257 37.05100 38219 ft 410 kts 273°
2026-04-16 07:22 41.72408 36.97553 38216 ft 410 kts 273°
2026-04-16 07:23 41.72555 36.89901 38212 ft 410 kts 273°
2026-04-16 07:23 41.72697 36.82248 38212 ft 410 kts 273°
2026-04-16 07:24 41.72834 36.74616 38216 ft 410 kts 273°
2026-04-16 07:24 41.72965 36.66985 38217 ft 410 kts 273°
2026-04-16 07:25 41.73092 36.59345 38208 ft 410 kts 273°
2026-04-16 07:25 41.73214 36.51708 38217 ft 410 kts 273°
2026-04-16 07:26 41.73330 36.44083 38212 ft 410 kts 273°
2026-04-16 07:26 41.73442 36.36446 38212 ft 410 kts 273°
2026-04-16 07:27 41.73547 36.28859 38210 ft 410 kts 273°
2026-04-16 07:27 41.73648 36.21269 38210 ft 410 kts 273°
2026-04-16 07:28 41.73745 36.13593 38208 ft 409 kts 273°
2026-04-16 07:28 41.73836 36.06034 38208 ft 409 kts 272°
2026-04-16 07:29 41.73922 35.98360 38203 ft 409 kts 272°
2026-04-16 07:29 41.74003 35.90754 38208 ft 408 kts 272°
2026-04-16 07:30 41.74079 35.83140 38196 ft 408 kts 272°
2026-04-16 07:30 41.74150 35.75591 38194 ft 408 kts 272°
2026-04-16 07:31 41.74215 35.67986 38186 ft 408 kts 272°
2026-04-16 07:31 41.74276 35.60402 38193 ft 408 kts 272°
2026-04-16 07:32 41.74332 35.52795 38186 ft 407 kts 272°
2026-04-16 07:32 41.74382 35.45263 38187 ft 407 kts 272°
2026-04-16 07:33 41.74428 35.37733 38179 ft 407 kts 272°
2026-04-16 07:33 41.74469 35.30113 38174 ft 406 kts 272°
2026-04-16 07:34 41.74505 35.22524 38174 ft 406 kts 272°
2026-04-16 07:34 41.74536 35.14973 38167 ft 405 kts 272°
2026-04-16 07:35 41.74561 35.07476 38160 ft 405 kts 272°
2026-04-16 07:35 41.74582 34.99932 38155 ft 405 kts 272°
2026-04-16 07:36 41.74598 34.92402 38146 ft 404 kts 272°
2026-04-16 07:36 41.74609 34.84896 38149 ft 404 kts 272°
2026-04-16 07:37 41.74615 34.77368 38136 ft 403 kts 272°
2026-04-16 07:37 41.74617 34.69859 38138 ft 403 kts 272°
2026-04-16 07:38 41.74614 34.62425 38123 ft 403 kts 272°
2026-04-16 07:38 41.74605 34.54908 38136 ft 402 kts 272°
2026-04-16 07:39 41.74589 34.47422 38129 ft 402 kts 272°
2026-04-16 07:39 41.74569 34.39934 38117 ft 401 kts 272°
2026-04-16 07:40 41.74545 34.32494 38100 ft 400 kts 272°
2026-04-16 07:40 41.74515 34.25025 38114 ft 399 kts 272°
2026-04-16 07:41 41.74482 34.17631 38122 ft 399 kts 271°
2026-04-16 07:41 41.74444 34.10213 38123 ft 398 kts 271°
2026-04-16 07:42 41.74401 34.02793 38121 ft 398 kts 271°
2026-04-16 07:42 41.74353 33.95383 38122 ft 399 kts 271°
2026-04-16 07:43 41.74300 33.87949 38118 ft 399 kts 271°
2026-04-16 07:43 41.74243 33.80554 38123 ft 398 kts 271°
2026-04-16 07:44 41.74181 33.73110 38111 ft 398 kts 271°
2026-04-16 07:44 41.74114 33.65698 38116 ft 398 kts 271°
2026-04-16 07:45 41.74043 33.58304 38117 ft 398 kts 271°
2026-04-16 07:45 41.73966 33.50908 38121 ft 397 kts 271°
2026-04-16 07:46 41.73885 33.43513 38108 ft 396 kts 271°
2026-04-16 07:46 41.73800 33.36201 38113 ft 396 kts 271°
2026-04-16 07:47 41.73710 33.28779 38115 ft 395 kts 270°
2026-04-16 07:47 41.73616 33.21480 38111 ft 395 kts 271°
2026-04-16 07:48 41.73517 33.14138 38116 ft 394 kts 270°
2026-04-16 07:48 41.73415 33.06772 38111 ft 394 kts 270°
2026-04-16 07:49 41.73312 32.99433 38104 ft 394 kts 270°
2026-04-16 07:49 41.73227 32.92098 38115 ft 394 kts 271°
2026-04-16 07:50 41.73143 32.84761 38113 ft 393 kts 270°
2026-04-16 07:50 41.73068 32.78690 38121 ft 393 kts 270°
2026-04-16 07:51 41.72955 32.70195 38121 ft 393 kts 270°
2026-04-16 07:51 41.72870 32.64099 38134 ft 393 kts 270°
2026-04-16 07:52 41.72764 32.56778 38139 ft 394 kts 270°
2026-04-16 07:52 41.72653 32.49428 38137 ft 394 kts 270°
2026-04-16 07:53 41.72537 32.42076 38139 ft 395 kts 270°
2026-04-16 07:53 41.72418 32.34795 38146 ft 395 kts 270°
2026-04-16 07:54 41.71972 32.27461 38137 ft 398 kts 259°
2026-04-16 07:54 41.70665 32.20305 38142 ft 398 kts 258°
2026-04-16 07:55 41.69333 32.13116 38143 ft 398 kts 258°
2026-04-16 07:55 41.68017 32.05926 38148 ft 398 kts 258°
2026-04-16 07:55 41.67364 32.02342 38002 ft 401 kts 258°
2026-04-16 07:56 41.66695 31.98663 37579 ft 405 kts 259°
2026-04-16 07:56 41.66027 31.95004 37205 ft 404 kts 259°
2026-04-16 07:56 41.65363 31.91372 36821 ft 400 kts 259°
2026-04-16 07:56 41.64713 31.87826 36461 ft 398 kts 259°
2026-04-16 07:57 41.64041 31.84165 36094 ft 398 kts 259°
2026-04-16 07:57 41.63379 31.80563 35738 ft 398 kts 259°
2026-04-16 07:57 41.62724 31.77002 35396 ft 398 kts 259°
2026-04-16 07:57 41.62060 31.73404 35046 ft 399 kts 259°
2026-04-16 07:58 41.61395 31.69801 34707 ft 399 kts 259°
2026-04-16 07:58 41.60727 31.66197 34370 ft 400 kts 259°
2026-04-16 07:58 41.60071 31.62660 34026 ft 400 kts 259°
2026-04-16 07:58 41.59393 31.59012 33684 ft 401 kts 259°
2026-04-16 07:59 41.58721 31.55405 33347 ft 396 kts 259°
2026-04-16 07:59 41.58060 31.51870 33008 ft 388 kts 259°
2026-04-16 07:59 41.57410 31.48390 32680 ft 382 kts 259°
2026-04-16 07:59 41.56777 31.45004 32372 ft 378 kts 259°
2026-04-16 08:00 41.56140 31.41607 32059 ft 376 kts 259°
2026-04-16 08:00 41.55507 31.38224 31758 ft 374 kts 260°
2026-04-16 08:00 41.55101 31.34838 31447 ft 370 kts 268°
2026-04-16 08:00 41.55062 31.31424 31147 ft 366 kts 276°
2026-04-16 08:01 41.55281 31.28023 30856 ft 365 kts 276°
2026-04-16 08:01 41.55514 31.24650 30559 ft 364 kts 277°
2026-04-16 08:01 41.55747 31.21286 30270 ft 364 kts 276°
2026-04-16 08:01 41.55974 31.17927 29941 ft 363 kts 276°
2026-04-16 08:02 41.56194 31.14597 29600 ft 363 kts 276°
2026-04-16 08:02 41.56623 31.07923 28944 ft 362 kts 276°
2026-04-16 08:02 41.56835 31.04571 28614 ft 362 kts 276°
2026-04-16 08:03 41.57048 31.01180 28278 ft 361 kts 276°
2026-04-16 08:03 41.57254 30.97883 28175 ft 357 kts 276°
2026-04-16 08:03 41.57665 30.91252 28150 ft 357 kts 276°
2026-04-16 08:04 41.58069 30.84674 28139 ft 357 kts 276°
2026-04-16 08:04 41.58471 30.78070 28095 ft 357 kts 276°
2026-04-16 08:05 41.58665 30.74873 27746 ft 354 kts 276°
2026-04-16 08:05 41.58860 30.71617 27430 ft 347 kts 276°
2026-04-16 08:05 41.59050 30.68427 27110 ft 341 kts 276°
2026-04-16 08:05 41.59215 30.65325 26804 ft 336 kts 275°
2026-04-16 08:06 41.59336 30.62229 26478 ft 331 kts 274°
2026-04-16 08:06 41.59443 30.59170 26192 ft 329 kts 274°
2026-04-16 08:06 41.59551 30.56105 25908 ft 332 kts 274°
2026-04-16 08:06 41.59662 30.52985 25622 ft 336 kts 274°
2026-04-16 08:07 41.59774 30.49900 25334 ft 337 kts 274°
2026-04-16 08:07 41.59887 30.46768 25032 ft 336 kts 274°
2026-04-16 08:07 41.60001 30.43646 24687 ft 336 kts 274°
2026-04-16 08:07 41.60113 30.40554 24374 ft 336 kts 274°
2026-04-16 08:08 41.60227 30.37409 24049 ft 336 kts 274°
2026-04-16 08:08 41.60337 30.34341 23723 ft 335 kts 274°
2026-04-16 08:08 41.60459 30.31184 23348 ft 335 kts 277°
2026-04-16 08:08 41.61062 30.28221 23135 ft 330 kts 294°
2026-04-16 08:09 41.62252 30.25672 22784 ft 332 kts 310°
2026-04-16 08:09 41.63860 30.23427 22486 ft 330 kts 313°
2026-04-16 08:09 41.65478 30.21263 22168 ft 328 kts 313°
2026-04-16 08:09 41.67083 30.19087 21855 ft 326 kts 313°
2026-04-16 08:10 41.68665 30.16916 21539 ft 325 kts 312°
2026-04-16 08:10 41.70216 30.14772 21231 ft 323 kts 312°
2026-04-16 08:10 41.71795 30.12582 20934 ft 322 kts 312°
2026-04-16 08:10 41.73316 30.10418 20585 ft 322 kts 306°
2026-04-16 08:11 41.74351 30.07782 20201 ft 321 kts 285°
2026-04-16 08:11 41.74600 30.04810 19846 ft 323 kts 266°
2026-04-16 08:11 41.74107 30.01909 19496 ft 325 kts 249°
2026-04-16 08:11 41.72919 29.99293 19146 ft 328 kts 233°
2026-04-16 08:12 41.71446 29.96939 18794 ft 327 kts 232°
2026-04-16 08:12 41.69973 29.94626 18441 ft 325 kts 232°
2026-04-16 08:12 41.68548 29.92372 18042 ft 322 kts 232°
2026-04-16 08:12 41.67094 29.90040 17632 ft 319 kts 232°
2026-04-16 08:13 41.65686 29.87763 17251 ft 317 kts 232°
2026-04-16 08:13 41.64284 29.85494 16847 ft 314 kts 232°
2026-04-16 08:13 41.62997 29.83400 16489 ft 312 kts 235°
2026-04-16 08:13 41.62016 29.80863 16148 ft 305 kts 255°
2026-04-16 08:14 41.61709 29.78033 15825 ft 302 kts 268°
2026-04-16 08:14 41.61625 29.75268 15513 ft 302 kts 269°
2026-04-16 08:14 41.61561 29.72460 15197 ft 303 kts 269°
2026-04-16 08:14 41.61487 29.69645 14887 ft 303 kts 268°
2026-04-16 08:15 41.61401 29.66830 14577 ft 304 kts 268°
2026-04-16 08:15 41.61304 29.63991 14266 ft 304 kts 268°
2026-04-16 08:15 41.61204 29.61167 13985 ft 303 kts 268°
2026-04-16 08:15 41.60986 29.58389 13699 ft 302 kts 254°
2026-04-16 08:16 41.60054 29.55891 13443 ft 301 kts 233°
2026-04-16 08:16 41.58587 29.53959 13202 ft 300 kts 223°
2026-04-16 08:16 41.56988 29.52151 12937 ft 298 kts 221°
2026-04-16 08:16 41.55397 29.50384 12678 ft 297 kts 221°
2026-04-16 08:17 41.53819 29.48626 12426 ft 296 kts 221°
2026-04-16 08:17 41.52244 29.46859 12235 ft 299 kts 222°
2026-04-16 08:17 41.50649 29.45061 12182 ft 299 kts 222°
2026-04-16 08:17 41.49059 29.43262 12164 ft 297 kts 222°
2026-04-16 08:18 41.47496 29.41493 12163 ft 297 kts 222°